When you browse on this site, cookies collect data to enhance your experience and personalize the content and advertising you see.
Visit our Privacy Policy to learn more. By continuing to use the site, you agree to this use of cookies and data.
  • In Sweden
  • List of Countries
  • For 7 days
  • Water Temperature
  • Satellite Maps
  • Weather Map
  • Weather Widgets
  • user-avatar
    Login

    Hourly Weather Akdağmadeni

    Today, 19 January, Saturday

    Time Temperature Precipitation Wind Pressure Humidity
    00:00 -10°C° 0 mm 2 mps 632 mmHg 51%
    01:00 -10°C° 0 mm 2 mps 632 mmHg 48%
    02:00 -9°C° 0 mm 1 mps 631 mmHg 46%
    03:00 -9°C° 0 mm 1 mps 631 mmHg 45%
    04:00 -10°C° 0 mm 2 mps 632 mmHg 44%
    05:00 -9°C° 0 mm 2 mps 632 mmHg 43%
    06:00 -9°C° 0 mm 2 mps 632 mmHg 46%
    07:00 -9°C° 0 mm 2 mps 632 mmHg 48%
    08:00 -8°C° 0 mm 2 mps 633 mmHg 56%
    09:00 -6°C° 0 mm 2 mps 633 mmHg 58%
    10:00 -5°C° 0 mm 2 mps 633 mmHg 60%
    11:00 -3°C° 0 mm 2 mps 634 mmHg 63%
    12:00 -3°C° 0 mm 2 mps 634 mmHg 66%
    13:00 -2°C° 0 mm 2 mps 633 mmHg 68%
    14:00 -2°C° 0 mm 2 mps 633 mmHg 71%
    15:00 -3°C° 0 mm 2 mps 633 mmHg 71%
    16:00 -5°C° 0 mm 2 mps 633 mmHg 70%
    17:00 -4°C° 0 mm 1 mps 632 mmHg 70%
    18:00 -7°C° 0 mm 2 mps 632 mmHg 70%
    19:00 -7°C° 0 mm 2 mps 632 mmHg 70%
    20:00 -7°C° 0 mm 2 mps 633 mmHg 70%
    21:00 -7°C° 0 mm 2 mps 633 mmHg 71%
    22:00 -7°C° 0 mm 2 mps 633 mmHg 72%
    23:00 -8°C° 0 mm 2 mps 633 mmHg 73%

    Tomorrow, 20 January, Sunday

    Time Temperature Precipitation Wind Pressure Humidity
    00:00 -8°C° 0 mm 2 mps 633 mmHg 73%
    01:00 -8°C° 0 mm 2 mps 633 mmHg 74%
    02:00 -8°C° 0 mm 2 mps 633 mmHg 74%
    03:00 -8°C° 0 mm 2 mps 633 mmHg 74%
    04:00 -8°C° 0 mm 2 mps 633 mmHg 74%
    05:00 -8°C° 0 mm 2 mps 632 mmHg 74%
    06:00 -8°C° 0 mm 2 mps 633 mmHg 75%
    07:00 -7°C° 0 mm 2 mps 633 mmHg 75%
    08:00 -7°C° 0 mm 2 mps 633 mmHg 76%
    09:00 -3°C° 0 mm 1 mps 633 mmHg 78%
    10:00 -2°C° 0 mm 1 mps 634 mmHg 81%
    11:00 0°C° 0 mm 1 mps 634 mmHg 84%
    12:00 0°C° 0 mm 1 mps 633 mmHg 86%
    13:00 0°C° 0 mm 1 mps 633 mmHg 87%
    14:00 +1°C° 0 mm 1 mps 633 mmHg 89%
    15:00 -1°C° 0 mm 1 mps 632 mmHg 87%
    16:00 -2°C° 0 mm 1 mps 632 mmHg 85%
    17:00 -3°C° 0 mm 1 mps 632 mmHg 82%
    18:00 -3°C° 0 mm 1 mps 632 mmHg 81%
    19:00 -6°C° 0 mm 2 mps 632 mmHg 79%
    20:00 -6°C° 0 mm 2 mps 632 mmHg 77%
    21:00 -7°C° 0 mm 2 mps 632 mmHg 75%
    22:00 -7°C° 0 mm 2 mps 631 mmHg 72%
    23:00 -7°C° 0 mm 2 mps 631 mmHg 70%

    Day after tomorrow, 21 January, Monday

    Time Temperature Precipitation Wind Pressure Humidity
    00:00 -7°C° 0 mm 2 mps 631 mmHg 68%
    01:00 -8°C° 0 mm 2 mps 631 mmHg 67%
    02:00 -8°C° 0 mm 2 mps 631 mmHg 65%
    03:00 -8°C° 0 mm 2 mps 631 mmHg 64%
    04:00 -8°C° 0 mm 2 mps 631 mmHg 64%
    05:00 -8°C° 0 mm 2 mps 630 mmHg 64%
    06:00 -8°C° 0 mm 2 mps 631 mmHg 64%
    07:00 -8°C° 0 mm 2 mps 631 mmHg 65%
    08:00 -7°C° 0 mm 2 mps 631 mmHg 66%
    09:00 -6°C° 0 mm 2 mps 631 mmHg 67%
    10:00 -4°C° 0 mm 2 mps 632 mmHg 69%
    11:00 -3°C° 0 mm 2 mps 632 mmHg 71%
    12:00 -2°C° 0 mm 2 mps 632 mmHg 72%
    13:00 -2°C° 0 mm 2 mps 631 mmHg 73%
    14:00 0°C° 0 mm 1 mps 631 mmHg 75%
    15:00 -1°C° 0 mm 1 mps 631 mmHg 75%
    16:00 -2°C° 0 mm 1 mps 631 mmHg 75%
    17:00 -3°C° 0 mm 1 mps 630 mmHg 74%
    18:00 -3°C° 0 mm 1 mps 631 mmHg 74%
    19:00 -5°C° 0 mm 2 mps 631 mmHg 74%
    20:00 -6°C° 0 mm 2 mps 631 mmHg 74%
    21:00 -5°C° 0.1 mm 2 mps 631 mmHg 77%
    22:00 -3°C° 0.1 mm 1 mps 631 mmHg 79%
    23:00 -3°C° 0.1 mm 1 mps 631 mmHg 82%

    22 January, Tuesday

    Time Temperature Precipitation Wind Pressure Humidity
    00:00 -3°C° 0.2 mm 1 mps 631 mmHg 84%
    01:00 -3°C° 0.2 mm 1 mps 631 mmHg 86%
    02:00 -3°C° 0.2 mm 1 mps 631 mmHg 88%
    03:00 -3°C° 0.1 mm 1 mps 631 mmHg 88%
    04:00 -3°C° 0.1 mm 1 mps 631 mmHg 89%
    05:00 -3°C° 0.1 mm 1 mps 631 mmHg 89%
    06:00 -3°C° 0.1 mm 1 mps 631 mmHg 88%
    07:00 -3°C° 0.1 mm 1 mps 631 mmHg 88%
    08:00 -3°C° 0.1 mm 1 mps 632 mmHg 87%
    09:00 -2°C° 0 mm 1 mps 632 mmHg 87%
    10:00 -1°C° 0 mm 1 mps 632 mmHg 87%
    11:00 0°C° 0 mm 1 mps 632 mmHg 87%
    12:00 0°C° 0 mm 1 mps 631 mmHg 87%
    13:00 0°C° 0 mm 1 mps 631 mmHg 87%
    14:00 +1°C° 0 mm 1 mps 630 mmHg 87%
    15:00 0°C° 0 mm 1 mps 630 mmHg 88%
    16:00 -1°C° 0 mm 1 mps 630 mmHg 88%
    17:00 -2°C° 0 mm 1 mps 629 mmHg 88%
    18:00 -5°C° 0 mm 2 mps 629 mmHg 87%
    19:00 -5°C° 0 mm 2 mps 630 mmHg 86%
    20:00 -5°C° 0 mm 2 mps 630 mmHg 85%
    21:00 -5°C° 0 mm 2 mps 630 mmHg 84%
    22:00 -5°C° 0 mm 2 mps 630 mmHg 82%
    23:00 -5°C° 0 mm 2 mps 630 mmHg 81%

    23 January, Wednesday

    Time Temperature Precipitation Wind Pressure Humidity
    00:00 -5°C° 0 mm 2 mps 630 mmHg 81%
    01:00 -5°C° 0 mm 2 mps 629 mmHg 80%
    02:00 -5°C° 0 mm 2 mps 629 mmHg 80%
    03:00 -5°C° 0 mm 2 mps 629 mmHg 80%
    04:00 -5°C° 0 mm 2 mps 629 mmHg 79%
    05:00 -7°C° 0 mm 3 mps 629 mmHg 79%
    06:00 -6°C° 0 mm 3 mps 629 mmHg 80%
    07:00 -6°C° 0 mm 3 mps 630 mmHg 81%
    08:00 -6°C° 0 mm 3 mps 630 mmHg 81%
    09:00 -5°C° 0 mm 3 mps 630 mmHg 82%
    10:00 -2°C° 0 mm 3 mps 630 mmHg 82%
    11:00 -1°C° 0 mm 3 mps 630 mmHg 82%
    12:00 -1°C° 0 mm 3 mps 630 mmHg 81%
    13:00 0°C° 0 mm 3 mps 630 mmHg 80%
    14:00 0°C° 0 mm 3 mps 630 mmHg 80%
    15:00 -1°C° 0 mm 3 mps 629 mmHg 81%
    16:00 -2°C° 0 mm 3 mps 629 mmHg 83%
    17:00 -4°C° 0 mm 3 mps 629 mmHg 85%
    18:00 -4°C° 0 mm 3 mps 629 mmHg 84%
    19:00 -5°C° 0 mm 3 mps 629 mmHg 83%
    20:00 -5°C° 0 mm 3 mps 630 mmHg 83%
    21:00 -5°C° 0 mm 3 mps 629 mmHg 82%
    22:00 -5°C° 0 mm 3 mps 629 mmHg 82%
    23:00 -6°C° 0 mm 3 mps 629 mmHg 81%

    24 January, Thursday

    Time Temperature Precipitation Wind Pressure Humidity
    00:00 -6°C° 0 mm 3 mps 629 mmHg 81%
    01:00 -6°C° 0 mm 3 mps 629 mmHg 81%
    02:00 -6°C° 0 mm 3 mps 628 mmHg 80%
    03:00 -5°C° 0 mm 3 mps 628 mmHg 80%
    04:00 -5°C° 0 mm 3 mps 628 mmHg 80%
    05:00 -5°C° 0 mm 3 mps 628 mmHg 80%
    06:00 -5°C° 0 mm 3 mps 628 mmHg 80%
    07:00 -4°C° 0 mm 3 mps 629 mmHg 80%
    08:00 -4°C° 0 mm 3 mps 629 mmHg 79%
    09:00 -2°C° 0 mm 3 mps 629 mmHg 76%
    10:00 -1°C° 0 mm 3 mps 628 mmHg 73%
    11:00 0°C° 0 mm 3 mps 628 mmHg 71%
    12:00 +1°C° 0 mm 3 mps 628 mmHg 70%
    13:00 +1°C° 0 mm 3 mps 627 mmHg 70%
    14:00 +1°C° 0 mm 3 mps 627 mmHg 70%
    15:00 0°C° 0 mm 3 mps 626 mmHg 72%
    16:00 -1°C° 0 mm 3 mps 626 mmHg 73%
    17:00 -3°C° 0 mm 4 mps 626 mmHg 75%
    18:00 -3°C° 0 mm 4 mps 626 mmHg 73%
    19:00 -3°C° 0 mm 4 mps 626 mmHg 72%
    20:00 -3°C° 0 mm 4 mps 626 mmHg 70%
    21:00 -3°C° 0 mm 4 mps 626 mmHg 70%
    22:00 -3°C° 0 mm 4 mps 626 mmHg 69%
    23:00 -2°C° 0 mm 4 mps 626 mmHg 68%
    Show more